Temperature
22 23 22 21 19 18 17 16 16 16 16 16 16 16 15 15 15 15 15 15 15 15 15 14 14 14 14 14 14 15 15 15 15 15 15 15 16 16 15 14 14 14 14
23 23 22 21 19 17 17 16 16 16 16 16 16 15 15 15 15 15 15 15 15 15 14 14 14 15 15 15 15 15 15 15 15 15 15 15 15 15 15 15 14 14 14
22 22 21 21 19 17 16 16 16 16 16 16 15 15 15 15 15 15 15 15 15 14 14 14 15 15 15 15 15 15 15 14 14 14 13 14 14 15 15 15 14 14 14
20 21 21 20 19 17 16 16 16 16 15 15 15 15 15 15 15 15 15 15 15 14 14 15 15 15 15 15 15 14 14 14 13 13 13 13 14 14 14 14 14 14 14
19 20 21 20 19 17 16 16 15 15 15 15 15 15 15 16 16 15 15 15 14 14 15 15 15 15 15 15 14 14 14 13 13 13 13 13 13 14 14 14 14 14 14
18 19 20 20 18 17 16 16 15 15 15 15 15 15 16 16 16 16 15 15 15 15 15 15 15 15 15 15 14 14 14 13 13 13 13 13 13 14 14 13 13 13 13
17 19 19 19 18 17 16 16 16 15 15 15 15 15 16 16 16 16 16 15 15 15 15 15 15 15 15 15 15 14 14 13 13 13 13 13 13 13 13 13 13 13 13
18 18 19 19 18 17 16 16 16 15 15 15 15 15 16 16 17 16 16 16 16 15 15 15 15 15 15 15 15 14 14 14 13 13 13 13 13 13 13 13 13 13 13
18 18 19 19 19 18 17 16 16 15 15 15 15 15 16 16 17 17 16 16 16 16 15 15 15 15 15 15 15 15 14 14 13 13 13 13 13 13 13 12 12 12 12
17 18 18 19 19 18 18 17 16 16 15 15 15 15 16 16 16 16 16 16 16 16 16 15 15 15 15 15 15 15 14 14 13 13 13 13 13 13 12 12 12 12 12
17 17 17 18 18 18 18 18 17 16 16 15 15 15 16 16 16 16 16 16 16 16 16 16 15 15 15 15 15 15 14 14 13 13 13 13 13 12 12 12 12 12 12
17 16 16 16 17 17 17 17 17 17 16 16 16 16 16 16 16 15 16 16 16 16 16 16 15 15 15 15 15 15 14 13 13 13 13 13 12 12 12 12 12 12 12
17 16 16 16 16 16 16 17 17 17 17 16 16 16 16 15 14 14 15 16 16 16 16 16 15 15 15 15 15 14 14 13 13 13 13 12 12 12 12 12 12 12 12
17 17 16 16 16 16 16 16 16 16 16 16 16 15 16 15 14 14 15 15 16 16 16 16 15 15 15 14 14 14 14 13 13 13 13 12 12 12 12 12 12 12 12
17 16 17 16 16 16 16 15 15 15 15 16 15 15 15 15 14 14 14 14 15 15 15 15 15 14 14 14 14 14 13 13 12 13 13 12 12 12 12 12 12 11 12
17 17 17 17 17 17 16 16 16 15 15 15 15 15 15 14 14 14 14 14 14 14 14 14 14 14 13 14 14 14 13 13 12 12 12 12 12 12 12 11 11 11 11
18 17 17 17 17 17 17 16 16 16 15 15 15 15 15 15 14 14 14 14 14 13 13 13 13 13 13 13 13 13 13 12 12 12 12 12 12 12 12 11 11 11 11
18 18 17 17 17 17 17 17 16 16 16 15 15 15 15 15 14 14 14 14 14 13 13 13 13 13 13 13 13 13 13 12 12 11 11 12 12 12 12 12 11 11 11
18 17 17 17 17 16 16 16 16 16 16 16 16 16 15 15 15 14 14 14 13 13 13 13 12 13 13 13 13 13 12 12 12 11 11 11 12 12 12 12 11 11 11
17 17 17 17 17 16 16 16 15 16 16 16 17 17 16 15 15 14 14 14 13 13 13 12 12 12 12 12 12 12 12 12 12 11 11 11 11 11 12 12 11 11 11
16 16 16 16 16 16 16 16 15 15 16 16 17 17 17 16 15 14 14 14 13 13 13 13 12 12 12 11 11 11 11 11 11 11 11 11 11 11 11 12 11 11 10
15 15 15 15 15 16 15 15 15 15 15 15 15 16 16 16 15 15 14 14 13 13 13 12 12 12 12 11 11 11 10 10 11 11 11 11 11 11 11 11 11 11 10
13 13 14 14 15 15 15 15 15 15 15 15 14 15 15 15 15 14 14 13 13 13 12 12 12 12 12 11 11 11 11 12 11 11 11 11 11 11 11 10 10 10 10
12 12 13 13 14 14 14 14 14 14 14 14 14 14 14 14 14 14 13 13 12 12 12 12 12 12 11 11 11 11 11 12 11 11 11 11 10 10 10 10 10 10 9
12 12 12 13 13 13 13 13 13 13 13 13 13 13 14 14 13 13 13 13 12 12 12 12 12 11 11 11 11 11 10 10 11 11 11 11 10 10 10 9 9 9 9
11 11 12 12 12 12 12 12 12 12 12 12 13 13 13 13 13 13 13 12 12 12 12 12 11 11 11 11 11 10 10 10 10 10 10 11 11 10 9 8 8 8 8
Wind_Speed
11 16 19 17 15 14 13 13 13 13 14 14 15 15 14 12 10 9 9 9 10 12 15 15 16 16 16 16 16 15 15 15 16 17 17 16 14 13 12 13 12 12 11
15 19 19 17 15 14 14 14 14 14 15 15 16 14 13 11 10 9 9 10 12 15 16 17 16 16 16 15 15 14 13 12 13 14 16 15 14 12 12 14 14 11 11
17 19 18 17 15 14 14 15 15 15 16 16 15 14 12 10 10 10 11 13 15 16 17 17 16 16 15 14 13 12 10 8 7 5 7 13 13 11 10 10 10 10 10
16 17 17 17 15 15 15 16 16 16 16 15 15 13 11 10 10 10 13 15 16 16 17 16 15 15 14 13 12 10 7 4 4 4 7 13 13 10 10 9 9 9 8
14 17 19 17 16 16 16 16 16 16 15 15 14 12 11 10 10 12 14 15 16 16 15 15 14 13 13 12 10 8 4 5 7 5 13 16 13 11 10 10 10 10 10
12 18 18 17 16 16 16 16 16 15 15 15 14 12 11 11 12 13 13 14 14 14 14 13 12 12 11 10 8 6 3 5 7 7 15 15 12 11 12 11 12 13 14
15 18 17 17 16 16 15 15 15 15 15 15 13 12 11 12 12 11 11 12 12 12 12 12 11 10 9 8 7 4 4 7 4 11 15 15 12 12 13 14 16 17 17
16 16 16 16 16 15 14 13 13 14 15 15 14 12 12 12 11 10 10 10 11 11 11 11 10 8 7 7 5 3 4 7 6 10 14 13 11 11 14 16 18 18 18
14 14 14 14 14 13 12 11 11 14 16 15 14 13 12 12 11 10 10 10 10 10 10 10 9 8 7 6 5 3 3 5 7 7 10 12 11 12 15 16 17 16 16
11 12 10 14 14 13 12 11 10 12 15 16 15 14 14 12 11 10 9 9 10 10 10 9 9 8 7 6 4 2 2 6 3 6 11 12 12 13 14 15 15 14 14
5 9 9 10 12 14 14 12 11 12 14 16 15 16 15 13 12 11 10 10 9 10 10 9 9 8 7 6 3 1 3 7 5 11 13 13 13 14 14 13 13 13 12
2 3 5 7 8 11 12 13 12 12 13 14 14 16 14 14 15 13 14 12 9 9 10 10 9 9 8 7 5 4 6 5 7 12 13 13 13 13 12 12 11 11 11
5 3 1 3 5 6 7 11 10 11 13 14 15 18 15 14 12 13 13 12 11 11 11 10 10 10 10 9 8 7 2 3 9 13 14 14 12 11 11 10 10 10 10
9 7 4 2 2 3 6 7 8 8 10 11 14 18 14 8 8 10 11 13 13 12 12 12 11 12 10 8 7 6 4 2 9 13 14 14 12 11 10 10 9 9 9
10 10 9 7 5 3 3 3 5 6 8 11 13 15 15 8 5 7 8 12 14 14 12 11 10 9 8 9 8 6 7 6 10 14 14 14 13 12 11 10 9 9 9
9 11 11 11 9 6 5 3 3 5 8 11 12 13 15 12 9 6 6 8 11 13 14 12 10 6 6 6 5 6 6 6 9 16 16 15 14 13 12 11 10 10 9
6 9 12 13 12 11 9 7 6 6 6 6 9 14 16 14 11 9 5 5 9 12 12 11 10 7 5 5 5 6 6 7 7 14 18 16 14 13 13 12 11 10 9
3 4 7 9 11 11 11 9 7 8 7 6 8 11 15 16 14 10 5 5 10 12 9 5 5 5 5 5 5 4 4 5 7 11 16 18 17 14 13 13 13 12 10
2 3 3 5 7 8 9 8 8 8 8 8 10 10 12 16 17 11 6 7 11 7 5 6 5 5 5 6 5 5 5 4 5 7 10 15 18 18 16 14 13 13 12
3 4 4 2 4 5 5 6 6 7 8 9 9 10 12 12 15 13 7 9 10 6 7 6 6 6 5 6 5 4 4 5 4 5 6 11 15 18 19 17 15 14 13
4 4 5 4 4 2 3 4 5 7 8 8 8 12 14 14 13 10 6 8 8 9 9 9 7 7 6 5 4 2 2 3 5 6 6 6 10 15 19 20 18 16 15
6 6 5 5 5 5 3 3 3 4 5 7 8 10 15 15 15 11 9 8 9 8 10 11 8 7 6 7 5 4 3 4 6 7 6 7 8 12 13 18 20 19 18
6 6 6 6 6 6 5 3 3 3 3 4 6 8 11 15 15 14 10 9 9 9 10 11 11 11 9 8 6 6 5 7 5 5 8 8 8 7 8 14 17 19 19
4 4 5 6 6 5 5 4 5 4 5 6 6 6 8 11 13 16 13 11 11 9 10 11 12 10 9 8 7 6 5 5 5 4 4 6 8 8 9 9 13 16 18
5 4 5 6 6 5 5 5 5 6 6 5 6 7 7 8 10 12 13 13 13 12 11 11 11 11 10 9 8 5 6 3 3 4 4 5 6 7 8 8 10 13 17
4 4 5 6 6 5 6 6 6 6 7 7 8 7 6 6 6 9 11 13 14 13 13 12 11 12 12 11 9 7 6 5 6 4 4 3 5 5 5 5 7 11 15
Wind_Direction
127 135 141 139 141 140 138 134 131 132 133 130 122 113 106 98 89 80 74 81 88 91 94 93 89 84 82 80 78 77 78 82 85 86 82 77 74 72 60 51 77 68 65
129 136 139 138 140 140 138 132 127 125 125 122 116 110 104 96 90 84 81 91 96 94 94 93 90 87 84 82 81 80 83 90 96 98 95 85 76 70 65 59 64 68 65
126 135 137 135 137 138 137 132 127 125 123 119 115 110 105 98 95 92 89 94 98 95 94 93 91 88 86 83 82 80 82 87 90 98 110 100 83 70 67 63 63 62 60
127 138 137 133 135 137 136 134 132 130 125 120 116 112 107 104 103 100 93 92 94 96 96 95 93 89 86 84 83 81 77 58 25 9 83 90 78 69 68 65 62 58 57
130 135 130 132 133 135 137 137 136 132 126 122 119 116 113 110 108 105 97 95 96 99 100 99 96 91 87 84 84 81 58 8 353 30 82 83 74 68 66 67 65 63 62
127 121 130 129 131 134 137 139 139 136 131 128 125 122 119 115 109 105 101 101 102 103 103 102 99 94 89 86 84 75 27 350 335 69 80 81 74 71 72 72 73 71 73
122 123 131 130 131 134 138 140 141 141 138 135 132 130 126 121 115 113 112 111 111 110 109 106 102 96 91 88 84 66 7 347 13 79 86 82 77 77 77 80 81 77 74
118 125 129 130 131 134 137 141 146 146 144 142 139 136 132 128 126 126 125 123 121 118 114 108 103 97 92 88 83 59 359 346 19 82 93 91 86 84 88 88 84 79 75
120 127 135 135 132 133 136 141 148 151 150 148 145 141 136 133 136 137 137 135 130 124 119 114 108 102 96 92 86 65 351 335 352 74 91 96 97 97 96 92 86 81 77
122 132 145 152 152 150 147 148 152 155 156 153 149 145 141 142 145 149 151 147 141 136 132 127 121 115 108 103 96 75 324 312 330 95 98 105 106 104 102 96 90 86 82
115 139 154 159 160 164 163 160 158 162 164 158 154 153 153 160 163 170 168 154 153 149 148 144 140 135 132 129 130 180 279 290 85 86 101 112 111 110 106 100 95 92 88
163 151 158 156 158 165 160 153 169 173 171 171 166 166 179 191 181 177 163 160 165 164 163 161 159 162 168 168 174 216 259 262 109 107 114 119 118 115 111 106 102 99 96
192 212 221 138 146 154 139 157 176 178 175 190 185 179 198 209 181 152 154 163 172 173 175 173 178 196 210 183 182 211 256 28 106 117 125 127 127 125 121 117 113 110 105
178 189 213 198 150 166 157 170 176 178 175 190 200 187 196 205 180 166 168 174 183 190 191 178 199 212 206 170 193 192 163 228 122 123 133 137 138 138 135 131 128 123 117
170 177 188 193 197 201 202 199 191 187 179 190 201 197 194 193 181 188 186 181 188 191 192 187 208 200 187 186 198 187 179 190 140 135 140 145 148 149 149 148 144 139 131
175 178 182 188 193 193 202 212 220 213 192 192 193 199 206 198 187 196 201 191 193 192 187 190 206 194 181 178 183 192 195 185 155 144 147 150 156 159 161 162 158 153 146
198 184 182 187 191 193 198 205 216 224 222 209 197 198 208 211 197 196 205 198 197 199 190 188 202 194 175 169 182 193 194 192 174 152 155 158 160 166 170 171 168 164 158
249 211 191 188 189 194 197 198 206 212 221 226 221 207 207 212 210 201 200 209 199 198 194 185 193 180 171 169 182 195 185 184 186 169 163 164 166 170 176 177 175 173 168
276 275 227 197 195 201 201 199 198 200 209 221 229 229 219 213 214 209 201 205 202 197 194 192 189 177 175 181 191 187 184 178 196 186 169 169 172 172 174 176 176 176 175
344 333 323 276 217 216 217 212 203 198 202 212 222 229 234 229 220 214 208 205 199 194 199 194 188 187 182 180 185 179 192 187 193 191 186 178 173 172 173 172 172 176 180
7 356 335 320 303 262 228 226 219 211 209 209 214 223 229 235 234 224 214 207 202 203 202 194 184 192 192 160 139 171 257 227 209 200 194 182 178 178 174 176 179 181 185
29 14 351 340 328 314 283 252 240 238 225 218 213 215 220 226 230 233 228 222 212 208 205 201 192 187 187 167 151 142 208 249 251 219 199 196 187 184 183 182 184 183 185
43 18 354 345 331 321 320 315 306 291 276 249 231 220 217 219 223 226 230 230 225 216 214 209 202 193 196 192 179 166 175 207 212 225 215 202 191 186 188 187 188 186 183
63 24 349 333 320 316 320 309 290 272 262 254 247 237 225 215 215 217 221 225 229 226 222 217 211 204 188 196 212 223 209 161 164 201 233 213 198 193 190 193 191 187 183
63 24 343 326 320 330 331 316 299 283 276 279 279 266 251 233 219 214 214 218 224 228 227 223 217 211 205 199 198 204 227 236 185 156 199 211 211 209 194 187 184 182 179
54 20 344 329 331 340 336 325 307 293 292 296 292 284 276 263 243 225 216 216 220 223 225 224 222 217 213 208 204 199 192 199 208 190 177 182 204 215 197 181 178 176 175
Height
1523 1525 1527 1529 1531 1533 1536 1538 1540 1542 1543 1545 1546 1546 1547 1547 1547 1547 1547 1548 1548 1549 1550 1550 1551 1551 1551 1552 1553 1554 1555 1556 1557 1558 1558 1558 1558 1558 1558 1558 1558 1558 1558
1522 1525 1528 1530 1532 1534 1537 1539 1541 1543 1544 1546 1546 1547 1548 1548 1548 1548 1548 1549 1550 1551 1551 1552 1552 1553 1553 1553 1554 1555 1556 1557 1558 1559 1559 1559 1559 1560 1560 1560 1560 1560 1560
1522 1525 1528 1530 1532 1535 1537 1540 1542 1544 1545 1546 1547 1548 1548 1548 1548 1549 1549 1550 1551 1552 1553 1554 1554 1554 1554 1554 1555 1556 1558 1559 1560 1560 1560 1561 1561 1561 1561 1561 1561 1561 1561
1522 1525 1528 1531 1533 1535 1538 1540 1542 1544 1546 1547 1547 1548 1548 1548 1549 1549 1551 1552 1552 1554 1555 1556 1556 1556 1556 1557 1557 1558 1560 1561 1562 1562 1563 1563 1563 1563 1563 1563 1563 1563 1563
1523 1525 1528 1531 1533 1536 1538 1541 1543 1544 1546 1547 1548 1548 1548 1549 1549 1550 1551 1553 1554 1555 1557 1557 1558 1558 1558 1559 1560 1560 1562 1563 1564 1564 1565 1564 1564 1564 1564 1564 1564 1565 1565
1524 1525 1529 1531 1534 1536 1539 1541 1543 1545 1546 1547 1548 1548 1549 1549 1550 1551 1552 1554 1556 1557 1558 1559 1560 1560 1560 1561 1562 1562 1563 1564 1565 1566 1565 1565 1565 1565 1565 1565 1565 1566 1566
1525 1526 1530 1532 1534 1537 1539 1541 1543 1545 1546 1547 1548 1549 1550 1550 1551 1552 1553 1555 1557 1558 1559 1560 1561 1562 1562 1563 1563 1564 1565 1565 1566 1567 1566 1566 1566 1566 1566 1566 1566 1567 1567
1526 1527 1530 1532 1534 1537 1539 1541 1543 1545 1546 1548 1548 1549 1550 1551 1552 1553 1554 1556 1557 1559 1560 1561 1562 1563 1563 1564 1564 1565 1566 1566 1567 1567 1567 1567 1567 1566 1566 1567 1567 1567 1568
1527 1528 1530 1532 1535 1537 1539 1541 1543 1545 1546 1548 1549 1550 1551 1552 1553 1554 1555 1557 1558 1560 1561 1562 1563 1563 1564 1565 1566 1566 1567 1568 1568 1568 1567 1567 1567 1567 1567 1567 1567 1568 1568
1528 1528 1531 1533 1535 1537 1539 1541 1543 1545 1546 1547 1549 1550 1551 1552 1553 1555 1556 1557 1559 1560 1562 1563 1563 1564 1565 1566 1566 1567 1568 1568 1568 1568 1567 1567 1567 1567 1567 1567 1567 1567 1567
1529 1530 1531 1533 1535 1537 1539 1540 1542 1544 1545 1547 1548 1549 1551 1552 1554 1555 1556 1558 1559 1560 1562 1563 1564 1564 1565 1566 1566 1567 1568 1568 1568 1568 1567 1567 1567 1567 1567 1567 1567 1567 1566
1528 1531 1533 1534 1536 1537 1538 1540 1541 1543 1544 1546 1547 1549 1551 1552 1553 1554 1556 1557 1559 1560 1561 1562 1563 1564 1565 1565 1566 1567 1567 1567 1567 1567 1567 1567 1567 1567 1567 1567 1567 1566 1565
1527 1529 1532 1534 1536 1537 1538 1539 1540 1542 1543 1545 1546 1548 1550 1551 1553 1553 1555 1556 1558 1559 1560 1561 1562 1563 1563 1564 1565 1565 1566 1567 1566 1565 1566 1566 1566 1566 1566 1566 1566 1565 1565
1525 1527 1530 1532 1534 1536 1537 1538 1540 1541 1542 1544 1545 1546 1548 1550 1552 1552 1553 1554 1556 1557 1558 1559 1561 1561 1562 1562 1563 1564 1565 1566 1564 1563 1564 1565 1565 1565 1565 1565 1565 1564 1564
1524 1526 1528 1529 1531 1533 1535 1537 1539 1540 1541 1543 1544 1546 1547 1548 1550 1551 1551 1552 1553 1554 1556 1557 1559 1559 1560 1561 1561 1562 1562 1563 1563 1561 1562 1563 1563 1563 1563 1563 1563 1563 1563
1524 1525 1526 1527 1529 1531 1533 1535 1537 1539 1540 1541 1542 1544 1545 1547 1547 1549 1550 1551 1551 1552 1553 1554 1556 1557 1558 1558 1559 1559 1560 1560 1560 1559 1559 1560 1560 1561 1561 1561 1562 1562 1562
1523 1524 1525 1526 1527 1528 1530 1532 1534 1536 1538 1539 1540 1541 1543 1544 1545 1545 1547 1548 1549 1550 1551 1552 1553 1554 1555 1555 1556 1556 1557 1558 1558 1557 1556 1556 1557 1558 1558 1559 1559 1560 1560
1521 1522 1524 1524 1525 1526 1528 1529 1531 1532 1534 1536 1537 1538 1539 1540 1542 1542 1543 1544 1546 1547 1548 1548 1549 1550 1550 1551 1552 1553 1553 1554 1555 1554 1553 1552 1553 1554 1555 1556 1557 1557 1558
1518 1520 1521 1522 1523 1524 1526 1527 1528 1529 1530 1532 1533 1534 1535 1536 1537 1538 1539 1540 1542 1543 1543 1544 1545 1546 1546 1547 1548 1549 1549 1550 1551 1551 1550 1550 1549 1550 1551 1552 1553 1554 1555
1514 1516 1517 1519 1520 1521 1523 1524 1524 1525 1525 1526 1527 1529 1530 1531 1532 1533 1534 1535 1536 1537 1538 1539 1540 1541 1542 1543 1544 1545 1545 1545 1546 1546 1546 1546 1546 1546 1547 1548 1549 1550 1551
1510 1512 1513 1515 1516 1517 1518 1519 1520 1520 1520 1521 1522 1523 1524 1525 1526 1527 1528 1529 1530 1530 1531 1533 1534 1535 1536 1538 1539 1539 1540 1540 1540 1540 1541 1541 1541 1541 1542 1543 1544 1546 1547
1507 1508 1509 1510 1511 1512 1513 1514 1515 1515 1515 1516 1516 1516 1517 1518 1519 1520 1522 1523 1524 1524 1525 1526 1527 1528 1529 1531 1531 1533 1534 1535 1532 1533 1534 1535 1535 1536 1537 1537 1539 1540 1542
1504 1504 1505 1505 1506 1507 1508 1508 1509 1509 1510 1511 1511 1511 1511 1512 1512 1513 1514 1516 1517 1518 1519 1519 1520 1521 1521 1522 1523 1525 1525 1523 1524 1525 1526 1527 1528 1529 1530 1532 1533 1534 1535
1502 1502 1502 1502 1502 1502 1502 1503 1503 1503 1503 1504 1505 1506 1506 1506 1506 1506 1507 1508 1510 1511 1512 1512 1513 1514 1514 1514 1515 1516 1518 1518 1518 1517 1518 1519 1521 1522 1523 1525 1526 1528 1529
1500 1499 1499 1499 1499 1498 1498 1498 1498 1498 1498 1499 1499 1499 1500 1500 1500 1500 1500 1501 1502 1503 1504 1505 1506 1506 1506 1506 1506 1508 1510 1512 1512 1512 1511 1512 1513 1514 1516 1518 1519 1521 1523
1497 1497 1496 1495 1495 1494 1494 1493 1493 1493 1492 1492 1493 1493 1493 1493 1494 1494 1494 1494 1494 1495 1496 1497 1498 1499 1499 1499 1500 1500 1502 1504 1504 1505 1505 1505 1506 1508 1510 1511 1513 1514 1515